TimePDT,TemperatureF,Dew PointF,Humidity,Sea Level PressureIn,VisibilityMPH,Wind Direction,Wind SpeedMPH,Gust SpeedMPH,PrecipitationIn,Events,Conditions,WindDirDegrees,DateUTC
12:55 AM,54.0,41.0,62,29.95,10.0,WNW,4.6,-,N/A,,Clear,290,2013-05-26 07:55:00
1:55 AM,52.0,41.0,66,29.94,10.0,NW,5.8,-,N/A,,Clear,320,2013-05-26 08:55:00
2:55 AM,51.1,41.0,68,29.94,10.0,NW,8.1,-,N/A,,Mostly Cloudy,310,2013-05-26 09:55:00
3:55 AM,48.9,41.0,74,29.94,10.0,West,6.9,-,N/A,,Clear,280,2013-05-26 10:55:00
4:55 AM,48.9,41.0,74,29.95,10.0,Calm,Calm,-,N/A,,Scattered Clouds,0,2013-05-26 11:55:00
5:55 AM,48.9,41.0,74,29.95,10.0,West,5.8,-,N/A,,Overcast,280,2013-05-26 12:55:00
6:55 AM,51.1,41.0,68,29.95,10.0,WNW,6.9,-,N/A,,Overcast,290,2013-05-26 13:55:00
7:55 AM,51.1,41.0,68,29.96,10.0,WSW,5.8,-,N/A,,Overcast,250,2013-05-26 14:55:00
8:55 AM,52.0,42.1,69,29.96,10.0,WNW,5.8,-,N/A,,Overcast,290,2013-05-26 15:55:00
9:55 AM,54.0,42.1,64,29.96,10.0,West,4.6,-,N/A,,Overcast,270,2013-05-26 16:55:00
10:55 AM,57.0,41.0,55,29.96,10.0,Variable,3.5,-,N/A,,Mostly Cloudy,0,2013-05-26 17:55:00
11:55 AM,57.0,43.0,59,29.96,10.0,West,6.9,-,0.00,Rain,Light Rain,270,2013-05-26 18:55:00
12:55 PM,59.0,43.0,55,29.95,10.0,West,4.6,-,0.00,,Overcast,280,2013-05-26 19:55:00
1:55 PM,61.0,42.1,50,29.93,10.0,West,4.6,-,N/A,,Overcast,260,2013-05-26 20:55:00
2:55 PM,64.0,43.0,46,29.91,10.0,West,5.8,-,N/A,,Scattered Clouds,260,2013-05-26 21:55:00
3:55 PM,64.9,41.0,42,29.90,10.0,West,5.8,-,N/A,,Overcast,280,2013-05-26 22:55:00
4:55 PM,66.0,42.1,42,29.89,10.0,West,6.9,-,N/A,,Overcast,260,2013-05-26 23:55:00
5:55 PM,66.0,44.1,45,29.89,10.0,NW,15.0,-,N/A,,Overcast,320,2013-05-27 00:55:00
6:55 PM,64.9,44.1,47,29.90,10.0,NW,13.8,-,N/A,,Overcast,320,2013-05-27 01:55:00
7:55 PM,63.0,44.1,50,29.91,10.0,WNW,9.2,-,N/A,,Overcast,300,2013-05-27 02:55:00
8:55 PM,60.1,44.1,55,29.92,10.0,NW,12.7,-,N/A,,Overcast,310,2013-05-27 03:55:00
9:55 PM,55.0,44.1,67,29.93,10.0,NNW,5.8,-,N/A,,Partly Cloudy,340,2013-05-27 04:55:00
10:55 PM,57.0,42.1,57,29.92,10.0,NW,10.4,-,N/A,,Scattered Clouds,320,2013-05-27 05:55:00
11:55 PM,54.0,42.1,64,29.92,10.0,NW,3.5,-,N/A,,Clear,310,2013-05-27 06:55:00